TimeEST,TemperatureF,Dew PointF,Humidity,Sea Level PressureIn,VisibilityMPH,Wind Direction,Wind SpeedMPH,Gust SpeedMPH,PrecipitationIn,Events,Conditions,WindDirDegrees,DateUTC
12:53 AM,28.0,23.0,81,30.04,10.0,Calm,Calm,-,N/A,,Clear,0,2012-12-29 05:53:00
1:53 AM,28.9,24.1,82,30.04,10.0,Calm,Calm,-,N/A,,Clear,0,2012-12-29 06:53:00
2:53 AM,30.0,24.1,79,30.04,10.0,Calm,Calm,-,N/A,,Clear,0,2012-12-29 07:53:00
3:53 AM,30.9,24.1,76,30.01,10.0,Calm,Calm,-,N/A,,Clear,0,2012-12-29 08:53:00
4:53 AM,30.9,25.0,79,30.00,10.0,NNE,3.5,-,N/A,,Clear,30,2012-12-29 09:53:00
5:53 AM,30.0,25.0,82,29.97,10.0,NE,5.8,-,N/A,,Clear,40,2012-12-29 10:53:00
6:53 AM,30.9,25.0,79,29.95,10.0,Calm,Calm,-,N/A,,Mostly Cloudy,0,2012-12-29 11:53:00
7:53 AM,30.9,25.0,79,29.91,10.0,NE,4.6,-,N/A,,Mostly Cloudy,50,2012-12-29 12:53:00
8:53 AM,32.0,26.1,79,29.91,10.0,ENE,4.6,-,N/A,,Overcast,60,2012-12-29 13:53:00
9:34 AM,33.8,26.6,75,29.88,10.0,NNE,5.8,-,N/A,,Overcast,30,2012-12-29 14:34:00
9:53 AM,33.1,27.0,78,29.87,10.0,NE,6.9,-,N/A,,Overcast,50,2012-12-29 14:53:00
10:53 AM,34.0,28.0,79,29.81,10.0,NE,8.1,-,N/A,,Overcast,50,2012-12-29 15:53:00
11:53 AM,35.1,30.9,85,29.74,7.0,NNE,6.9,-,0.00,Rain,Light Rain,30,2012-12-29 16:53:00
12:53 PM,35.1,33.1,92,29.68,4.0,NE,9.2,-,0.06,Rain,Light Rain,40,2012-12-29 17:53:00
1:35 PM,35.6,33.8,93,29.63,4.0,NNE,10.4,-,0.03,Rain,Light Rain,30,2012-12-29 18:35:00
1:53 PM,36.0,34.0,93,29.62,7.0,NE,12.7,-,0.04,,Overcast,40,2012-12-29 18:53:00
2:06 PM,35.6,33.8,93,29.60,6.0,NE,12.7,-,0.00,Rain,Light Rain,50,2012-12-29 19:06:00
2:30 PM,35.6,35.6,100,29.60,4.0,NE,11.5,-,0.02,Rain,Light Rain,50,2012-12-29 19:30:00
2:53 PM,37.0,35.1,93,29.58,3.0,NE,6.9,-,0.05,Rain,Rain,50,2012-12-29 19:53:00
3:16 PM,37.4,35.6,93,29.55,6.0,NE,11.5,-,0.02,Rain,Light Rain,50,2012-12-29 20:16:00
3:53 PM,37.0,35.1,93,29.52,5.0,NE,11.5,-,0.05,Rain,Light Rain,40,2012-12-29 20:53:00
4:53 PM,37.0,35.1,93,29.49,6.0,NE,11.5,18.4,0.04,Rain,Light Rain,40,2012-12-29 21:53:00
5:45 PM,33.8,32.0,93,29.48,2.5,NNE,10.4,-,0.04,Snow,Light Snow,20,2012-12-29 22:45:00
6:53 PM,32.0,30.9,96,29.47,4.0,North,17.3,-,0.00,Snow,Light Snow,10,2012-12-29 23:53:00
7:53 PM,32.0,30.0,92,29.47,7.0,North,12.7,19.6,0.00,,Overcast,350,2012-12-30 00:53:00
8:09 PM,32.0,28.4,87,29.47,5.0,NNW,11.5,-,N/A,,Overcast,340,2012-12-30 01:09:00
8:53 PM,32.0,28.9,88,29.48,6.0,NNW,11.5,-,0.00,,Overcast,340,2012-12-30 01:53:00
9:03 PM,32.0,28.4,87,29.49,5.0,NNW,11.5,-,0.00,Snow,Light Snow,330,2012-12-30 02:03:00
9:43 PM,32.0,30.2,93,29.51,8.0,NW,8.1,18.4,0.00,,Overcast,320,2012-12-30 02:43:00
9:53 PM,32.0,30.0,92,29.51,10.0,NNW,11.5,17.3,0.00,,Overcast,330,2012-12-30 02:53:00
10:35 PM,32.0,28.4,87,29.53,10.0,NW,11.5,17.3,N/A,,Overcast,320,2012-12-30 03:35:00
10:53 PM,32.0,28.9,88,29.54,10.0,NW,9.2,-,N/A,,Overcast,320,2012-12-30 03:53:00
11:53 PM,32.0,28.0,85,29.55,10.0,NW,13.8,21.9,0.00,,Overcast,320,2012-12-30 04:53:00